Showing default

CS2, 49262

Orbit data source: Space-Track

CS2, 49262 is a payload satellite owned by Cesium (US) in SSO that was launched on Mon, 27 Sep 2021 UTC via an ATLAS V 401 launch vehicle from the Air Force Western Test Range (AFWTR). Payload-class satellites include a variety of spacecraft equipped with specific instruments for various scientific and technological missions. These include communications satellites like Starlink; space stations such as the ISS; scientific satellites like the Hubble; Earth observation satellites from companies like Planet Labs, Umbra, and HawkEye 360; GPS; miniature CubeSats for education and research; and military/defense satellites.

Loading next visibility...
Identifier
49262, 2021-088C
Orbit
SSO
Country
Flag of USUS
Related business
Manufacturer
Cesium
Mission
Operational Commercial Technology
Bus & Motor
CUBESAT 6U, Unknown motor
Mass
~10 kg wet, 10 kg dry
Launch date (UTC)
2021-09-27 (5 years ago)
Launch vehicle
ATLAS V 401
Launch site
Air Force Western Test Range (AFWTR)
Object type
Payload
Rocket body
Debris
Shape & HBR
Box + 3 Pan, 0.5 m
Radar Cross Section
0.150 m², Medium (>0.1 m² and < 1m²)

Expand to show TLE details & history
Last TLE update: 2 days ago

TLE from 2 days ago
0 CS2
1 49262U 21088C   26171.15314583  .00013504  00000-0  38111-3 0  9999
2 49262  97.3808 236.8773 0010772  77.8062 282.4388 15.36450784260975
Epoch: 2026-06-20T03:40Z
TLE epoch observation values (Epoch: 2026-06-20T03:40:31.799Z)
Latitude
-0.00004°
Longitude
-86.62705°
Altitude
458.149 km
Speed
7.639 km/s
True Right ascension
15h 47m 30s
True Declination
0° 00' 00"
Sunlit
Object was in full shadow at epoch
Visualization orbit readout
Latitude
Unknown
Longitude
Unknown
Altitude
Unknown
Speed
Unknown
Apparent Right ascension
Unknown
Apparent Declination
Unknown
Sunlit
N/A
Visualization observer readout
Local Sidereal Time
21:35:46
Azimuth
Unknown
Elevation
Unknown
Doppler factor
Unknown
Orbital elements
Apogee altitude
460.917 km
Perigee altitude
446.198 km
Semi-major axis
6,831.695 km
Eccentricity
0.00108
Inclination
97.3808°
RAAN
236.8773°
Arg. of periapsis
77.8062°
True anomaly
282.31822°
Mean anomaly
282.4388°
Eccentric anomaly
282.37852°
Mean motion
3.84371 °/min
Orbital period
93.66 mins
BSTAR
0.00038111
Loading maneuver chart data...
Computing Atmospheric mass density...
Loading historical data...
Loading historical data...
Loading historical data...
Loading historical data...
Loading historical data...
Loading historical data...
Loading historical data...
Other satellites on launch #88 in the year 2021 (2021-09-27 UTC)

Documentation

Showing up to 5 results
|